Location: �terpigny
(49.8910°N, 2.9249°E)
Time: 11:08:30
(UTC+00:00)

Lacrosse 4 Rocket - Pass Details

Date: 24 October 2021
Orbit: 537 x 619 km, 68.0° (Epoch: 30 November)

Event Time Altitude Azimuth Distance (km) Brightness Sun altitude
Rises 19:04:40 0° 315° (NW) 2,818 5.8 -24.0°
Reaches altitude 10° 19:07:15 10° 301° (WNW) 1,928 5.0 -24.4°
Maximum altitude 19:10:36 22° 250° (WSW) 1,320 3.8 -24.9°
Drops below altitude 10° 19:13:59 10° 199° (SSW) 1,951 4.2 -25.4°
Enters shadow 19:14:56 - 192° (SSW) 2,258 4.4 -25.6°
